Location: Newark
(49.8348°N, 24.0280°E)
Time: 06:17:45
(UTC+00:00)

Transit 2A - Pass Details

Date: 22 January 2020
Orbit: 600 x 959 km, 66.7° (Epoch: 17 February)

Event Time Altitude Azimuth Distance (km) Brightness Sun altitude
Rises 04:49:57 0° 313° (NW) 2,982 - -12.7°
Reaches altitude 10° 04:52:35 10° 298° (WNW) 2,116 - -12.3°
Exits shadow 04:54:11 17° 281° (W) 1,724 7.2 -12.1°
Maximum altitude 04:56:14 22° 248° (WSW) 1,531 7.1 -11.7°
Drops below altitude 10° 05:00:07 10° 199° (SSW) 2,271 8.4 -11.1°
Sets 05:03:05 0° 185° (S) 3,264 9.4 -10.7°
